User: anonymous
Location: Wildlife_Club
(35.6000°N, 81.4330°W)
Time: 16:18:30
(UTC-04:00)
Language:

Cosmos 1782 - Orbit

View from above orbital plane
View from above orbital plane
View from above satellite
View from above satellite

Ground track
Ground track

The orbit data is extracted from the following two-line orbital elements,

1 16986U 86074A   14273.35184986  .00003886  00000-0  28440-3 0  8665
2 16986 082.5107 003.5569 0013346 120.9978 239.2560 15.03265855521775
Epoch (UTC): 30 September 2014 08:26:39
Eccentricity: 0.0013346
inclination: 82.5107°
perigee height: 547 km
apogee height: 566 km
right ascension of ascending node: 3.5569°
argument of perigee: 120.9978°
revolutions per day: 15.03265855
mean anomaly at epoch: 239.2560°
orbit number at epoch: 52177

The dashed part of the orbit path shows where the satellite is in the earth's shadow,  

DLR